Location: Allens Landing
(37.8284°N, 89.7284°W)
Time: 06:35:24
(UTC+00:00)

Vanguard 2 Rocket - Pass Details

Date: 13 November 2024
Orbit: 554 x 3296 km, 32.9° (Epoch: 04 December)

Event Time Altitude Azimuth Distance (km) Brightness Sun altitude
Rises 11:16:58 0° 210° (SSW) 5,060 10.5 -16.1°
Reaches altitude 10° 11:20:14 10° 201° (SSW) 4,416 10.3 -15.5°
Maximum altitude 11:31:48 37° 140° (SE) 3,690 10.5 -13.2°
Drops below altitude 10° 11:48:02 10° 83° (E) 6,192 12.4 -10.1°
Sets 11:53:38 0° 76° (ENE) 7,279 12.7 -9.1°
